TimeHAST,TemperatureF,Dew PointF,Humidity,Sea Level PressureIn,VisibilityMPH,Wind Direction,Wind SpeedMPH,Gust SpeedMPH,PrecipitationIn,Events,Conditions,WindDirDegrees,DateUTC
12:16 AM,39.2,33.8,81,29.39,10.0,East,25.3,33.4,N/A,,Overcast,80,2014-03-05 10:16:00
12:36 AM,39.2,33.8,81,29.39,9.0,East,28.8,38.0,N/A,,Overcast,80,2014-03-05 10:36:00
12:56 AM,39.2,33.8,81,29.39,10.0,East,25.3,33.4,N/A,,Overcast,90,2014-03-05 10:56:00
1:16 AM,39.2,33.8,81,29.39,10.0,East,26.5,35.7,N/A,,Overcast,80,2014-03-05 11:16:00
1:36 AM,39.2,33.8,81,29.39,10.0,East,26.5,34.5,N/A,,Mostly Cloudy,80,2014-03-05 11:36:00
1:56 AM,39.2,33.8,81,29.38,2.5,East,26.5,33.4,N/A,,Overcast,80,2014-03-05 11:56:00
2:16 AM,39.2,33.8,81,29.38,2.5,East,23.0,34.5,N/A,,Overcast,90,2014-03-05 12:16:00
2:36 AM,39.2,33.8,81,29.38,8.0,East,26.5,33.4,N/A,,Overcast,90,2014-03-05 12:36:00
2:56 AM,39.2,33.8,81,29.38,9.0,East,27.6,35.7,N/A,,Overcast,90,2014-03-05 12:56:00
3:16 AM,39.2,33.8,81,29.38,7.0,East,27.6,35.7,N/A,,Overcast,80,2014-03-05 13:16:00
3:36 AM,39.2,33.8,81,29.39,7.0,East,23.0,36.8,N/A,,Overcast,80,2014-03-05 13:36:00
3:56 AM,39.2,33.8,81,29.39,8.0,East,28.8,34.5,N/A,,Overcast,80,2014-03-05 13:56:00
4:16 AM,39.2,33.8,81,29.38,3.0,East,24.2,33.4,N/A,,Overcast,80,2014-03-05 14:16:00
4:36 AM,39.2,33.8,81,29.38,8.0,East,24.2,33.4,N/A,,Overcast,90,2014-03-05 14:36:00
4:56 AM,39.2,33.8,81,29.38,2.5,East,24.2,32.2,N/A,,Overcast,80,2014-03-05 14:56:00
5:16 AM,41.0,33.8,76,29.38,8.0,East,24.2,31.1,N/A,,Overcast,80,2014-03-05 15:16:00
5:36 AM,41.0,33.8,76,29.38,4.0,East,25.3,32.2,N/A,,Overcast,80,2014-03-05 15:36:00
5:56 AM,41.0,33.8,76,29.37,9.0,East,27.6,34.5,N/A,,Overcast,90,2014-03-05 15:56:00
6:16 AM,41.0,33.8,76,29.37,4.0,East,25.3,31.1,N/A,,Overcast,80,2014-03-05 16:16:00
6:36 AM,41.0,33.8,76,29.37,5.0,East,21.9,25.3,N/A,,Overcast,80,2014-03-05 16:36:00
6:56 AM,41.0,33.8,76,29.37,3.0,East,24.2,32.2,N/A,,Overcast,90,2014-03-05 16:56:00
7:16 AM,41.0,33.8,76,29.37,5.0,ENE,21.9,33.4,N/A,,Overcast,70,2014-03-05 17:16:00
7:36 AM,41.0,33.8,76,29.37,9.0,ENE,25.3,34.5,N/A,,Overcast,70,2014-03-05 17:36:00
7:56 AM,41.0,33.8,76,29.38,5.0,ENE,25.3,34.5,N/A,,Overcast,70,2014-03-05 17:56:00
8:16 AM,41.0,33.8,76,29.38,5.0,ENE,23.0,31.1,N/A,,Overcast,70,2014-03-05 18:16:00
8:36 AM,42.8,33.8,70,29.39,4.0,ENE,26.5,34.5,N/A,,Overcast,70,2014-03-05 18:36:00
8:56 AM,42.8,33.8,70,29.39,7.0,ENE,26.5,33.4,N/A,,Overcast,70,2014-03-05 18:56:00
9:16 AM,42.8,33.8,70,29.39,8.0,ENE,24.2,34.5,N/A,,Overcast,70,2014-03-05 19:16:00
9:36 AM,42.8,33.8,70,29.40,10.0,ENE,24.2,31.1,N/A,,Overcast,70,2014-03-05 19:36:00
9:56 AM,42.8,33.8,70,29.40,10.0,ENE,25.3,34.5,N/A,,Overcast,70,2014-03-05 19:56:00
10:16 AM,42.8,33.8,70,29.40,10.0,ENE,27.6,34.5,N/A,,Overcast,70,2014-03-05 20:16:00
10:36 AM,42.8,33.8,70,29.41,10.0,ENE,23.0,34.5,N/A,,Mostly Cloudy,70,2014-03-05 20:36:00
10:56 AM,42.8,33.8,70,29.41,10.0,ENE,25.3,34.5,N/A,,Overcast,70,2014-03-05 20:56:00
11:16 AM,41.0,33.8,76,29.42,10.0,ENE,25.3,31.1,N/A,,Overcast,70,2014-03-05 21:16:00
11:36 AM,41.0,33.8,76,29.42,10.0,ENE,23.0,34.5,N/A,,Overcast,70,2014-03-05 21:36:00
11:56 AM,41.0,33.8,76,29.43,10.0,ENE,20.7,31.1,N/A,,Overcast,70,2014-03-05 21:56:00
12:16 PM,41.0,33.8,76,29.44,10.0,ENE,17.3,27.6,N/A,,Overcast,60,2014-03-05 22:16:00
12:36 PM,41.0,33.8,76,29.44,10.0,ENE,18.4,25.3,N/A,,Overcast,60,2014-03-05 22:36:00
12:56 PM,41.0,33.8,76,29.44,10.0,ENE,18.4,24.2,N/A,,Overcast,70,2014-03-05 22:56:00
1:16 PM,41.0,33.8,76,29.44,10.0,ENE,18.4,25.3,N/A,,Overcast,60,2014-03-05 23:16:00
1:36 PM,41.0,33.8,76,29.43,10.0,ENE,21.9,31.1,N/A,,Overcast,70,2014-03-05 23:36:00
1:56 PM,41.0,33.8,76,29.43,10.0,ENE,21.9,25.3,N/A,,Overcast,70,2014-03-05 23:56:00
2:16 PM,41.0,32.0,70,29.43,10.0,ENE,18.4,28.8,N/A,,Mostly Cloudy,70,2014-03-06 00:16:00
2:36 PM,41.0,33.8,76,29.43,8.0,ENE,19.6,31.1,N/A,,Mostly Cloudy,70,2014-03-06 00:36:00
2:56 PM,39.2,33.8,81,29.43,6.0,ENE,23.0,31.1,N/A,,Mostly Cloudy,70,2014-03-06 00:56:00
3:16 PM,41.0,33.8,76,29.43,10.0,ENE,16.1,24.2,N/A,,Mostly Cloudy,60,2014-03-06 01:16:00
3:36 PM,41.0,33.8,76,29.43,10.0,ENE,18.4,23.0,N/A,,Overcast,70,2014-03-06 01:36:00
3:56 PM,41.0,32.0,70,29.44,10.0,NE,13.8,17.3,N/A,,Overcast,50,2014-03-06 01:56:00
4:16 PM,41.0,30.2,65,29.44,10.0,NNE,15.0,20.7,N/A,,Overcast,20,2014-03-06 02:16:00
4:36 PM,39.2,30.2,70,29.44,10.0,NE,16.1,23.0,N/A,,Overcast,50,2014-03-06 02:36:00
4:56 PM,39.2,30.2,70,29.44,10.0,NE,20.7,27.6,N/A,,Overcast,50,2014-03-06 02:56:00
5:16 PM,39.2,30.2,70,29.44,10.0,ENE,26.5,32.2,N/A,,Overcast,60,2014-03-06 03:16:00
5:36 PM,39.2,30.2,70,29.44,8.0,NE,28.8,34.5,N/A,,Mostly Cloudy,40,2014-03-06 03:36:00
5:56 PM,37.4,30.2,75,29.46,6.0,NE,20.7,32.2,N/A,,Overcast,40,2014-03-06 03:56:00
6:16 PM,37.4,30.2,75,29.47,9.0,NNE,17.3,28.8,N/A,,Overcast,30,2014-03-06 04:16:00
6:36 PM,37.4,30.2,75,29.48,10.0,NE,18.4,29.9,N/A,,Overcast,40,2014-03-06 04:36:00
6:56 PM,37.4,30.2,75,29.48,9.0,NE,19.6,27.6,N/A,,Overcast,40,2014-03-06 04:56:00
7:16 PM,37.4,30.2,75,29.49,9.0,NE,17.3,29.9,N/A,,Overcast,40,2014-03-06 05:16:00
7:36 PM,37.4,30.2,75,29.50,7.0,NE,16.1,24.2,N/A,,Mostly Cloudy,40,2014-03-06 05:36:00
7:56 PM,37.4,28.4,70,29.50,7.0,NNE,15.0,23.0,N/A,,Overcast,30,2014-03-06 05:56:00
8:16 PM,37.4,28.4,70,29.50,7.0,NE,16.1,25.3,N/A,,Overcast,40,2014-03-06 06:16:00
8:36 PM,37.4,28.4,70,29.51,7.0,NE,17.3,25.3,N/A,,Overcast,40,2014-03-06 06:36:00
8:56 PM,37.4,28.4,70,29.51,9.0,NE,15.0,27.6,N/A,,Mostly Cloudy,40,2014-03-06 06:56:00
9:16 PM,35.6,28.4,75,29.51,10.0,NE,13.8,24.2,N/A,,Overcast,40,2014-03-06 07:16:00
9:36 PM,37.4,28.4,70,29.51,10.0,NE,16.1,31.1,N/A,,Overcast,40,2014-03-06 07:36:00
9:56 PM,35.6,28.4,75,29.52,10.0,NE,13.8,21.9,N/A,,Overcast,50,2014-03-06 07:56:00
10:16 PM,37.4,26.6,65,29.52,10.0,NE,13.8,21.9,N/A,,Overcast,50,2014-03-06 08:16:00
10:36 PM,35.6,26.6,70,29.53,10.0,NE,13.8,-,N/A,,Overcast,40,2014-03-06 08:36:00
10:56 PM,35.6,26.6,70,29.53,10.0,NE,16.1,21.9,N/A,,Overcast,50,2014-03-06 08:56:00
11:16 PM,35.6,26.6,70,29.53,10.0,ENE,12.7,21.9,N/A,,Overcast,60,2014-03-06 09:16:00
11:36 PM,35.6,26.6,70,29.53,10.0,ENE,13.8,-,N/A,,Overcast,60,2014-03-06 09:36:00
11:56 PM,35.6,26.6,70,29.53,10.0,ENE,13.8,-,N/A,,Overcast,60,2014-03-06 09:56:00